[TLELIST] Archives

 

[TLELIST] Current TLEs

July 30th 2024 PST

HST 1 20580U 90037B 24211.85365723 .00007357 00000-0 33939-3 0 9995 2 20580 28.4691 59.1451 0002385 131.1778 228.9021 15.18321845683782 ISS (ZARYA) 1 25544U 98067A 24212.23326880 .00022357 00000-0 39127-3 0 9997 2 25544 51.6406 102.0608 0009894 124.2141 21.5799 15.50483309465226 CXO 1 25867U 99040B 24212.81828720 .00000474 00000-0 00000-0 0 9992 2 25867 42.0995 149.9794 8850044 299.0599 0.4005 0.37805532 14731 ...Continue Reading

[TLELIST] Current TLEs

July 29th 2024 PST

HST 1 20580U 90037B 24210.86768993 .00006653 00000-0 30618-3 0 9990 2 20580 28.4688 65.7568 0002445 122.0079 238.0751 15.18307870683379 ISS (ZARYA) 1 25544U 98067A 24211.20008757 .00019906 00000-0 34998-3 0 9990 2 25544 51.6409 107.1851 0009854 120.5430 14.5742 15.50433013465060 CXO 1 25867U 99040B 24212.81828720 .00000474 00000-0 00000-0 0 9992 2 25867 42.0995 149.9794 8850044 299.0599 0.4005 0.37805532 14731 ...Continue Reading

[TLELIST] Current TLEs

July 28th 2024 PST

HST 1 20580U 90037B 24210.01317780 .00007163 00000-0 33044-3 0 9994 2 20580 28.4686 71.4870 0002502 113.4142 246.6714 15.18297447683503 ISS (ZARYA) 1 25544U 98067A 24210.35729375 .00020861 00000-0 36697-3 0 9991 2 25544 51.6403 111.3623 0010126 116.2913 351.6381 15.50380942464931 CXO 1 25867U 99040B 24212.81818747 .00000474 00000-0 00000+0 0 9999 2 25867 42.0996 149.9794 8850039 299.0598 0.3870 0.37805916 25888 ...Continue Reading

[TLELIST] Current TLEs

July 27th 2024 PST

HST 1 20580U 90037B 24208.96146214 .00007607 00000-0 35164-3 0 9995 2 20580 28.4683 78.5393 0002552 103.0216 257.0662 15.18282306683348 ISS (ZARYA) 1 25544U 98067A 24209.26826575 .00018996 00000-0 33560-3 0 9991 2 25544 51.6399 116.7616 0010046 111.4755 34.2389 15.50327391464760 CXO 1 25867U 99040B 24210.17453706 .00000481 00000-0 00000-0 0 9995 2 25867 42.0189 150.2641 8852117 298.8498 0.5824 0.37809102 14715 ...Continue Reading

[TLELIST] Current TLEs

July 26th 2024 PST

HST 1 20580U 90037B 24207.84400215 .00006887 00000-0 31766-3 0 9998 2 20580 28.4681 86.0329 0002656 92.4710 267.6186 15.18265329682910 ISS (ZARYA) 1 25544U 98067A 24208.30165458 .00017717 00000-0 31405-3 0 9997 2 25544 51.6406 121.5505 0010165 108.6374 38.7447 15.50286404464614 CXO 1 25867U 99040B 24210.17453706 .00000481 00000-0 00000-0 0 9995 2 25867 42.0189 150.2641 8852117 298.8498 0.5824 0.37809102 14715 ...Continue Reading

[TLELIST] Current TLEs

July 25th 2024 PST

HST 1 20580U 90037B 24206.85799808 .00008294 00000-0 38453-3 0 9991 2 20580 28.4682 92.6446 0002648 82.4421 277.6472 15.18253378682766 ISS (ZARYA) 1 25544U 98067A 24207.39188981 .00018073 00000-0 32052-3 0 9996 2 25544 51.6402 126.0588 0010177 104.8575 1.8008 15.50254702464479 CXO 1 25867U 99040B 24207.53115113 .00000607 00000-0 00000-0 0 9998 2 25867 41.9302 150.5724 8851632 298.6335 0.7499 0.37804841 14708 ...Continue Reading

[TLELIST] Current TLEs

July 25th 2024 PST

HST 1 20580U 90037B 24206.85799808 .00008294 00000-0 38453-3 0 9991 2 20580 28.4682 92.6446 0002648 82.4421 277.6472 15.18253378682766 ISS (ZARYA) 1 25544U 98067A 24207.39188981 .00018073 00000-0 32052-3 0 9996 2 25544 51.6402 126.0588 0010177 104.8575 1.8008 15.50254702464479 CXO 1 25867U 99040B 24207.53115113 .00000607 00000-0 00000-0 0 9998 2 25867 41.9302 150.5724 8851632 298.6335 0.7499 0.37804841 14708 ...Continue Reading

[TLELIST] Current TLEs

July 24th 2024 PST

HST 1 20580U 90037B 24205.87198500 .00009707 00000-0 45174-3 0 9992 2 20580 28.4684 99.2558 0002655 72.5342 287.5541 15.18239695682612 ISS (ZARYA) 1 25544U 98067A 24206.17447642 .00018729 00000-0 33234-3 0 9994 2 25544 51.6396 132.0915 0010235 100.4061 47.5829 15.50212042464287 CXO 1 25867U 99040B 24207.53115113 .00000607 00000-0 00000-0 0 9998 2 25867 41.9302 150.5724 8851632 298.6335 0.7499 0.37804841 14708 ...Continue Reading

[TLELIST] Current TLEs

July 23rd 2024 PST

HST 1 20580U 90037B 24205.14890217 .00009705 00000-0 45184-3 0 9995 2 20580 28.4683 104.1038 0002660 66.4996 293.5876 15.18227112682768 ISS (ZARYA) 1 25544U 98067A 24205.33611388 .00058913 00000-0 10232-2 0 9992 2 25544 51.6404 136.2520 0010179 96.1672 50.0847 15.50207491464158 CXO 1 25867U 99040B 24207.53115113 .00000607 00000-0 00000-0 0 9998 2 25867 41.9302 150.5724 8851632 298.6335 0.7499 0.37804841 14708 ...Continue Reading

[TLELIST] Current TLEs

July 22nd 2024 PST

HST 1 20580U 90037B 24203.17682724 .00008917 00000-0 41485-3 0 9992 2 20580 28.4681 117.3260 0002558 45.7048 314.3754 15.18191033682201 ISS (ZARYA) 1 25544U 98067A 24204.36926792 .00018812 00000-0 33458-3 0 9992 2 25544 51.6379 141.0388 0010232 94.1660 52.9482 15.50143306464004 CXO 1 25867U 99040B 24204.88591692 .00000703 00000-0 00000-0 0 9990 2 25867 41.8763 150.7871 8851548 298.5104 0.5638 0.37802407 14701 ...Continue Reading
  • This mailing list is a public mailing list - anyone may join or leave, at any time.
  • This mailing list is announce-only.

International Space Station (ISS) / Hubble Space Telescope (HST) / Chandra X-Ray Observatory Orbital Data via EMAIL

Privacy Policy:

Private list